(340095) = 2005 WY70

Discovered at Kitt Peak on 2005-11-21 by Spacewatch.

Orbit

Orbit type: Main Belt

Note: WebGL enabled browser required.

epoch2023-09-13.0
epoch JD2460200.5
perihelion date2020-12-30.22265
perihelion JD2459213.72265
argument of perihelion (°)76.34963
ascending node (°)53.39198
inclination (°)6.00750
eccentricity0.1782658
perihelion distance (AU)1.9523832
Tisserand w.r.t. Jupiter3.5
ΔV w.r.t. Earth (km/sec)8.9
semimajor axis (AU)2.3759302
mean anomaly (°)265.56602
mean daily motion (°/day)0.26912460
aphelion distance (AU)2.799
period (years)3.66
P-vector [x]-0.63504249
P-vector [y]0.66210972
P-vector [z]0.39790923
Q-vector [x]-0.76789507
Q-vector [y]-0.59710436
Q-vector [z]-0.23195591
absolute magnitude17.65
phase slope0.15
uncertainty0
referenceMPEC 2024-A65
observations used344
oppositions9
arc length (days)7581
first opposition used2003
last opposition used2024
residual rms (arc-secs)0.69
perturbers coarse indicatorM-v
perturbers precise indicator003Ek
first observation date used2003-04-04.0
last observation date used2024-01-05.0
computer nameMPCLINUX
JD of orbit computation2456819.674045
perihelion JD uncertainty (days)1.4682E-04
argument of perihelion uncertainty (°)5.7141E-05
ascending node uncertainty (°)3.7353E-05
inclination uncertainty (°)8.1109E-06
eccentricity uncertainty 4.2606E-08
perihelion distance uncertainty (AU)8.9825E-08
Minimum Orbit Intersection Distances (in AU)
for orbit epoch: 2460200.5, reference: E2023-X62
Mercury1.61418
Venus1.23561
Earth0.97621
Mars0.32498
Jupiter2.27344
Saturn6.88306
Uranus16.3875
Neptune27.2586

Observations

354 total observations over interval: 2003 04 04.40100 – 2024 01 05.268212
These data are available for download (format description).

Date (UT) J2000 RA J2000 Dec Magn Location Ref
2003 04 04.40100 14 03 31.85 -06 44 36.6 20.5 V 691 – Steward Observatory, Kitt Peak-Spacewatch MPS 317925
2003 04 04.42988 14 03 30.17 -06 44 31.8 20.8 V 691 – Steward Observatory, Kitt Peak-Spacewatch MPS 317925
2003 04 04.45979 14 03 28.45 -06 44 27.2 20.7 V 691 – Steward Observatory, Kitt Peak-Spacewatch MPS 317925
2005 09 30.44476 04 54 01.15 +22 06 27.6 21.8 V G96 – Mt. Lemmon Survey MPS 157832
2005 09 30.45031 04 54 01.40 +22 06 28.4 21.6 V G96 – Mt. Lemmon Survey MPS 157832
2005 09 30.45585 04 54 01.62 +22 06 30.0 21.7 V G96 – Mt. Lemmon Survey MPS 157832
2005 09 30.46140 04 54 01.80 +22 06 31.1 20.9 V G96 – Mt. Lemmon Survey MPS 157832
2005 11 21.25304 04 44 12.54 +24 47 59.0 20.0 V 691 – Steward Observatory, Kitt Peak-Spacewatch MPS 153945
2005 11 21.27050 04 44 11.40 +24 48 01.6 20.2 V 691 – Steward Observatory, Kitt Peak-Spacewatch MPS 153945
2005 11 21.28782 04 44 10.28 +24 48 04.3 20.4 V 691 – Steward Observatory, Kitt Peak-Spacewatch MPS 153945
2005 11 28.24409 04 36 27.61 +25 02 25.1 19.7   704 – Lincoln Laboratory ETS, New Mexico MPS 153945
2005 11 28.25716 04 36 26.70 +25 02 25.9 20.0   704 – Lincoln Laboratory ETS, New Mexico MPS 153945
2005 11 28.27094 04 36 25.75 +25 02 27.8 19.7   704 – Lincoln Laboratory ETS, New Mexico MPS 153945
2005 11 28.28486 04 36 24.73 +25 02 28.4 20.2   704 – Lincoln Laboratory ETS, New Mexico MPS 153945
2005 11 28.29767 04 36 23.75 +25 02 29.9 20.2   704 – Lincoln Laboratory ETS, New Mexico MPS 153945
2005 11 28.34624 04 36 20.34 +25 02 37.3 19.3 V 703 – Catalina Sky Survey MPS 153945
2005 11 28.35222 04 36 19.65 +25 02 37.0 20.7 V 703 – Catalina Sky Survey MPS 153945
2005 11 28.35818 04 36 19.47 +25 02 37.5 19.9 V 703 – Catalina Sky Survey MPS 153945
2005 11 28.36413 04 36 19.04 +25 02 37.3 19.8 V 703 – Catalina Sky Survey MPS 153945
2005 11 29.26818 04 35 15.96 +25 04 12.7 20.3   704 – Lincoln Laboratory ETS, New Mexico MPS 153945
2005 11 29.28143 04 35 15.13 +25 04 15.0 20.2   704 – Lincoln Laboratory ETS, New Mexico MPS 153945
2005 11 29.29435 04 35 14.05 +25 04 15.6 20.0   704 – Lincoln Laboratory ETS, New Mexico MPS 153945
2005 11 29.30727 04 35 13.13 +25 04 16.5 20.1   704 – Lincoln Laboratory ETS, New Mexico MPS 153945
2005 11 30.25111 04 34 06.71 +25 05 51.7 19.3   704 – Lincoln Laboratory ETS, New Mexico MPS 153945
2005 11 30.26416 04 34 05.70 +25 05 53.7 20.2   704 – Lincoln Laboratory ETS, New Mexico MPS 153945
2005 11 30.29097 04 34 03.83 +25 05 55.1 20.0   704 – Lincoln Laboratory ETS, New Mexico MPS 153945
2005 11 30.30362 04 34 02.91 +25 05 56.6 20.2   704 – Lincoln Laboratory ETS, New Mexico MPS 153945
2005 12 01.26785 04 32 54.48 +25 07 28.7 20.6   704 – Lincoln Laboratory ETS, New Mexico MPS 153945
2005 12 01.28106 04 32 53.65 +25 07 30.4 20.3   704 – Lincoln Laboratory ETS, New Mexico MPS 153945
2005 12 01.29406 04 32 52.62 +25 07 29.4 20.8   704 – Lincoln Laboratory ETS, New Mexico MPS 153945
2005 12 01.30698 04 32 51.54 +25 07 33.3 20.2   704 – Lincoln Laboratory ETS, New Mexico MPS 153945
2005 12 02.27354 04 31 42.78 +25 09 00.4 19.5   704 – Lincoln Laboratory ETS, New Mexico MPS 155447
2005 12 02.27756 04 31 42.55 +25 08 59.6 19.7   704 – Lincoln Laboratory ETS, New Mexico MPS 155447
2005 12 02.28658 04 31 41.75 +25 09 02.3 20.0   704 – Lincoln Laboratory ETS, New Mexico MPS 155447
2005 12 02.29060 04 31 41.51 +25 09 02.0 20.2   704 – Lincoln Laboratory ETS, New Mexico MPS 155447
2005 12 02.29946 04 31 40.93 +25 09 02.9 20.1   704 – Lincoln Laboratory ETS, New Mexico MPS 155447
2005 12 02.31246 04 31 39.91 +25 09 04.1 19.7   704 – Lincoln Laboratory ETS, New Mexico MPS 155447
2005 12 02.31651 04 31 39.67 +25 09 04.8 19.8   704 – Lincoln Laboratory ETS, New Mexico MPS 155447
2005 12 02.32599 04 31 38.85 +25 09 05.6 20.1   704 – Lincoln Laboratory ETS, New Mexico MPS 155447
2005 12 05.24589 04 28 10.31 +25 13 03.5 19.8   704 – Lincoln Laboratory ETS, New Mexico MPS 153945
2005 12 05.25922 04 28 09.33 +25 13 03.4 20.3   704 – Lincoln Laboratory ETS, New Mexico MPS 153945
2005 12 05.27229 04 28 08.44 +25 13 06.2 19.9   704 – Lincoln Laboratory ETS, New Mexico MPS 153945
2005 12 05.28540 04 28 07.40 +25 13 07.2 19.5   704 – Lincoln Laboratory ETS, New Mexico MPS 153945
2005 12 05.29836 04 28 06.47 +25 13 09.0 19.9   704 – Lincoln Laboratory ETS, New Mexico MPS 153945
2005 12 10.15517 04 22 24.47 +25 18 21.9   291 – LPL/Spacewatch II MPS 155447
2005 12 10.15925 04 22 24.18 +25 18 22.2   291 – LPL/Spacewatch II MPS 155447
2005 12 10.16352 04 22 23.88 +25 18 22.5   291 – LPL/Spacewatch II MPS 155447
2005 12 21.09440 04 10 54.81 +25 25 26.9 20.2 V 691 – Steward Observatory, Kitt Peak-Spacewatch MPS 156131
2005 12 21.10972 04 10 53.94 +25 25 27.6 20.0 V 691 – Steward Observatory, Kitt Peak-Spacewatch MPS 156131
2005 12 21.12503 04 10 53.04 +25 25 28.2 20.4 V 691 – Steward Observatory, Kitt Peak-Spacewatch MPS 156131
2005 12 25.07853 04 07 30.00 +25 27 09.3 20.1 V 691 – Steward Observatory, Kitt Peak-Spacewatch MPS 156640
2005 12 25.09398 04 07 29.23 +25 27 10.0 20.1 V 691 – Steward Observatory, Kitt Peak-Spacewatch MPS 156640
2005 12 25.10942 04 07 28.48 +25 27 10.4 20.1 V 691 – Steward Observatory, Kitt Peak-Spacewatch MPS 156640
2010 02 15.20360 09 56 28.46 +25 21 45.9 19.7 V 703 – Catalina Sky Survey MPS 317925
2010 02 15.20814 09 56 28.17 +25 21 47.2 20.3 V 703 – Catalina Sky Survey MPS 317925
2010 02 15.21271 09 56 27.92 +25 21 46.2 19.9 V 703 – Catalina Sky Survey MPS 317925
2010 02 15.21724 09 56 27.52 +25 21 49.8 20.1 V 703 – Catalina Sky Survey MPS 317925
2010 03 21.17393 09 33 12.96 +25 15 43.8 20.3 V G96 – Mt. Lemmon Survey MPS 319330
2010 03 21.18052 09 33 12.88 +25 15 42.1 20.3 V G96 – Mt. Lemmon Survey MPS 319330
2010 03 21.18711 09 33 12.78 +25 15 40.4 20.3 V G96 – Mt. Lemmon Survey MPS 319330
2010 03 21.19372 09 33 12.74 +25 15 38.5 20.1 V G96 – Mt. Lemmon Survey MPS 319330
2010 05 12.234848 10 06 46.20 +18 10 05.1   C51 – WISE MPS 344891
2010 05 12.367153 10 06 55.89 +18 08 40.3   C51 – WISE MPS 344891
2010 05 12.499457 10 07 05.623 +18 07 15.82   C51 – WISE MPS 904110
2010 05 12.631762 10 07 15.40 +18 05 50.4   C51 – WISE MPS 344891
2010 05 12.76407 10 07 25.13 +18 04 25.1   C51 – WISE MPS 344891
2010 05 12.830154 10 07 30.05 +18 03 42.9   C51 – WISE MPS 344891
2010 05 12.89637 10 07 34.97 +18 03 00.2   C51 – WISE MPS 341836
2010 05 12.962458 10 07 39.81 +18 02 17.7   C51 – WISE MPS 341836
2010 05 13.028674 10 07 44.73 +18 01 35.0   C51 – WISE MPS 341836
2010 05 13.094763 10 07 49.58 +18 00 51.7   C51 – WISE MPS 341836
2010 05 13.160978 10 07 54.57 +18 00 10.1   C51 – WISE MPS 341836
2010 05 13.227066 10 07 59.49 +17 59 27.1   C51 – WISE MPS 344891
2010 05 13.359370 10 08 09.30 +17 58 01.4   C51 – WISE MPS 344891
2010 05 13.491675 10 08 19.15 +17 56 37.3   C51 – WISE MPS 344891
2010 05 13.623970 10 08 29.10 +17 55 10.5   C51 – WISE MPS 344891
2010 05 13.756274 10 08 38.79 +17 53 44.3   C51 – WISE MPS 344891
2010 05 13.88858 10 08 48.88 +17 52 20.9   C51 – WISE MPS 344891
2012 10 08.28474 01 36 39.06 +04 07 47.0 20.5 V G96 – Mt. Lemmon Survey MPS 434130
2012 10 08.29506 01 36 38.44 +04 07 45.1 20.2 V G96 – Mt. Lemmon Survey MPS 434130
2012 10 08.30532 01 36 37.83 +04 07 42.6 20.6 V G96 – Mt. Lemmon Survey MPS 434130
2012 10 08.31558 01 36 37.22 +04 07 40.2 20.3 V G96 – Mt. Lemmon Survey MPS 434130
2012 10 11.475104 01 33 29.333 +03 55 18.19 20.8 g F51 – Pan-STARRS 1, Haleakala MPS 435094
2012 10 11.487779 01 33 28.550 +03 55 15.35 20.8 g F51 – Pan-STARRS 1, Haleakala MPS 435094
2012 10 16.25335 01 28 36.44 +03 36 57.8 20.5 V G96 – Mt. Lemmon Survey MPS 435094
2012 10 16.26024 01 28 36.01 +03 36 56.3 20.3 V G96 – Mt. Lemmon Survey MPS 435094
2012 10 16.26705 01 28 35.54 +03 36 54.4 20.2 V G96 – Mt. Lemmon Survey MPS 435094
2012 10 16.27388 01 28 35.14 +03 36 53.1 20.4 V G96 – Mt. Lemmon Survey MPS 435094
2012 11 05.286793 01 09 09.259 +02 40 32.53 20.7 w F51 – Pan-STARRS 1, Haleakala MPS 441617
2012 11 05.301942 01 09 08.476 +02 40 31.03 20.7 w F51 – Pan-STARRS 1, Haleakala MPS 441617
2012 11 05.317010 01 09 07.689 +02 40 29.74 20.6 w F51 – Pan-STARRS 1, Haleakala MPS 441617
2012 11 05.332136 01 09 06.902 +02 40 28.35 20.5 w F51 – Pan-STARRS 1, Haleakala MPS 441617
